Time,TemperatureF,DewpointF,PressureIn,WindDirection,WindDirectionDegrees,WindSpeedMPH,WindSpeedGustMPH,Humidity,HourlyPrecipIn,Conditions,Clouds,dailyrainin,SoftwareType,DateUTC
2013-03-29 00:05:00,56.3,47.4,30.24,North,-999,0.0,0.0,72,0.00,,,-99.99,WeatherLink 5.5,2013-03-29 04:05:00,
2013-03-29 00:10:00,56.1,46.1,30.23,North,-999,0.0,0.0,69,0.00,,,-99.99,WeatherLink 5.5,2013-03-29 04:10:00,
2013-03-29 00:15:00,56.1,46.1,30.23,North,-999,0.0,0.0,69,0.00,,,-99.99,WeatherLink 5.5,2013-03-29 04:15:00,
2013-03-29 00:20:00,55.9,46.6,30.23,North,-999,0.0,0.0,71,0.00,,,-99.99,WeatherLink 5.5,2013-03-29 04:20:00,
2013-03-29 00:25:00,55.9,46.6,30.23,North,-999,0.0,0.0,71,0.00,,,-99.99,WeatherLink 5.5,2013-03-29 04:25:00,
2013-03-29 00:31:00,55.5,47.0,30.23,North,-999,0.0,0.0,73,0.00,,,-99.99,WeatherLink 5.5,2013-03-29 04:31:00,
2013-03-29 00:35:00,55.2,47.8,30.23,North,-999,0.0,0.0,76,0.00,,,-99.99,WeatherLink 5.5,2013-03-29 04:35:00,
2013-03-29 00:40:00,55.2,47.8,30.23,North,-999,0.0,0.0,76,0.00,,,-99.99,WeatherLink 5.5,2013-03-29 04:40:00,
2013-03-29 00:45:00,55.0,48.9,30.23,North,-999,0.0,0.0,80,0.00,,,-99.99,WeatherLink 5.5,2013-03-29 04:45:00,
2013-03-29 00:51:00,55.0,48.9,30.23,North,-999,0.0,0.0,80,0.00,,,-99.99,WeatherLink 5.5,2013-03-29 04:51:00,
2013-03-29 00:55:00,54.9,50.5,30.23,North,-999,0.0,0.0,85,0.00,,,-99.99,WeatherLink 5.5,2013-03-29 04:55:00,
2013-03-29 01:01:00,54.9,50.5,30.23,North,-999,0.0,0.0,85,0.00,,,-99.99,WeatherLink 5.5,2013-03-29 05:01:00,
2013-03-29 01:05:00,54.9,51.4,30.22,North,-999,0.0,0.0,88,0.00,,,-99.99,WeatherLink 5.5,2013-03-29 05:05:00,
2013-03-29 01:10:00,54.9,51.4,30.22,North,-999,0.0,0.0,88,0.00,,,-99.99,WeatherLink 5.5,2013-03-29 05:10:00,
2013-03-29 01:15:00,54.8,52.5,30.22,North,-999,0.0,0.0,92,0.00,,,-99.99,WeatherLink 5.5,2013-03-29 05:15:00,
2013-03-29 01:20:00,54.8,52.5,30.22,North,-999,0.0,0.0,92,0.00,,,-99.99,WeatherLink 5.5,2013-03-29 05:20:00,
2013-03-29 01:25:00,54.8,53.1,30.22,North,-999,0.0,0.0,94,0.00,,,-99.99,WeatherLink 5.5,2013-03-29 05:25:00,
2013-03-29 01:30:00,54.8,53.1,30.22,North,-999,0.0,0.0,94,0.00,,,-99.99,WeatherLink 5.5,2013-03-29 05:30:00,
2013-03-29 01:36:00,54.8,53.4,30.22,North,-999,0.0,0.0,95,0.00,,,-99.99,WeatherLink 5.5,2013-03-29 05:36:00,
2013-03-29 01:40:00,55.4,53.4,30.22,North,-999,0.0,0.0,93,0.00,,,-99.99,WeatherLink 5.5,2013-03-29 05:40:00,
2013-03-29 01:45:00,55.5,52.9,30.22,North,-999,0.0,0.0,91,0.00,,,-99.99,WeatherLink 5.5,2013-03-29 05:45:00,
2013-03-29 01:46:00,55.4,53.4,30.22,North,-999,0.0,0.0,93,0.00,,,-99.99,WeatherLink 5.5,2013-03-29 05:46:00,
2013-03-29 01:50:00,55.8,52.0,30.22,North,0,0.0,2.0,87,0.00,,,-99.99,WeatherLink 5.5,2013-03-29 05:50:00,
2013-03-29 01:55:00,55.8,52.0,30.22,North,0,0.0,2.0,87,0.00,,,-99.99,WeatherLink 5.5,2013-03-29 05:55:00,
2013-03-29 02:01:00,56.5,51.7,30.22,North,0,0.0,2.0,84,0.00,,,-99.99,WeatherLink 5.5,2013-03-29 06:01:00,
2013-03-29 02:05:00,56.9,51.5,30.22,North,-999,0.0,0.0,82,0.00,,,-99.99,WeatherLink 5.5,2013-03-29 06:05:00,
2013-03-29 02:10:00,56.9,51.5,30.22,North,-999,0.0,0.0,82,0.00,,,-99.99,WeatherLink 5.5,2013-03-29 06:10:00,
2013-03-29 02:15:00,56.0,50.9,30.21,North,-999,0.0,0.0,83,0.00,,,-99.99,WeatherLink 5.5,2013-03-29 06:15:00,
2013-03-29 02:20:00,56.0,50.9,30.21,North,-999,0.0,0.0,83,0.00,,,-99.99,WeatherLink 5.5,2013-03-29 06:20:00,
2013-03-29 02:25:00,55.7,50.9,30.21,North,0,0.0,2.0,84,0.00,,,-99.99,WeatherLink 5.5,2013-03-29 06:25:00,
2013-03-29 02:30:00,55.7,50.9,30.21,North,0,0.0,2.0,84,0.00,,,-99.99,WeatherLink 5.5,2013-03-29 06:30:00,
2013-03-29 02:35:00,55.8,51.0,30.21,North,0,0.0,2.0,84,0.00,,,-99.99,WeatherLink 5.5,2013-03-29 06:35:00,
2013-03-29 02:41:00,55.8,51.0,30.21,North,0,0.0,2.0,84,0.00,,,-99.99,WeatherLink 5.5,2013-03-29 06:41:00,
2013-03-29 02:45:00,56.1,51.3,30.21,North,0,0.0,2.0,84,0.00,,,-99.99,WeatherLink 5.5,2013-03-29 06:45:00,
2013-03-29 02:50:00,56.1,51.3,30.21,North,0,0.0,2.0,84,0.00,,,-99.99,WeatherLink 5.5,2013-03-29 06:50:00,
2013-03-29 02:55:00,56.5,52.0,30.21,North,0,0.0,2.0,85,0.00,,,-99.99,WeatherLink 5.5,2013-03-29 06:55:00,
2013-03-29 03:00:00,56.5,52.0,30.21,North,0,0.0,2.0,85,0.00,,,-99.99,WeatherLink 5.5,2013-03-29 07:00:00,
2013-03-29 03:06:00,56.5,52.4,30.20,North,-999,0.0,0.0,86,0.00,,,-99.99,WeatherLink 5.5,2013-03-29 07:06:00,
2013-03-29 03:10:00,56.3,52.5,30.20,North,-999,0.0,0.0,87,0.00,,,-99.99,WeatherLink 5.5,2013-03-29 07:10:00,
2013-03-29 03:16:00,56.3,52.5,30.20,North,-999,0.0,0.0,87,0.00,,,-99.99,WeatherLink 5.5,2013-03-29 07:16:00,
2013-03-29 03:20:00,55.9,52.4,30.20,North,-999,0.0,0.0,88,0.00,,,-99.99,WeatherLink 5.5,2013-03-29 07:20:00,
2013-03-29 03:25:00,55.9,52.4,30.20,North,-999,0.0,0.0,88,0.00,,,-99.99,WeatherLink 5.5,2013-03-29 07:25:00,
2013-03-29 03:30:00,56.1,52.9,30.20,North,-999,0.0,0.0,89,0.00,,,-99.99,WeatherLink 5.5,2013-03-29 07:30:00,
2013-03-29 03:35:00,56.1,52.9,30.20,North,-999,0.0,0.0,89,0.00,,,-99.99,WeatherLink 5.5,2013-03-29 07:35:00,
2013-03-29 03:40:00,56.4,52.3,30.19,North,0,0.0,3.0,86,0.00,,,-99.99,WeatherLink 5.5,2013-03-29 07:40:00,
2013-03-29 03:45:00,56.4,52.3,30.19,North,0,0.0,3.0,86,0.00,,,-99.99,WeatherLink 5.5,2013-03-29 07:45:00,
2013-03-29 03:50:00,56.9,52.1,30.19,North,0,0.0,2.0,84,0.00,,,-99.99,WeatherLink 5.5,2013-03-29 07:50:00,
2013-03-29 03:56:00,56.9,52.1,30.19,North,0,0.0,2.0,84,0.00,,,-99.99,WeatherLink 5.5,2013-03-29 07:56:00,
2013-03-29 04:00:00,56.7,51.6,30.19,North,0,0.0,2.0,83,0.00,,,-99.99,WeatherLink 5.5,2013-03-29 08:00:00,
2013-03-29 04:05:00,56.7,51.6,30.19,North,0,0.0,2.0,83,0.00,,,-99.99,WeatherLink 5.5,2013-03-29 08:05:00,
2013-03-29 04:10:00,56.7,50.9,30.19,North,0,0.0,3.0,81,0.00,,,-99.99,WeatherLink 5.5,2013-03-29 08:10:00,
2013-03-29 04:15:00,56.7,50.9,30.19,North,0,0.0,3.0,81,0.00,,,-99.99,WeatherLink 5.5,2013-03-29 08:15:00,
2013-03-29 04:21:00,56.8,51.0,30.19,North,-999,0.0,1.0,81,0.00,,,-99.99,WeatherLink 5.5,2013-03-29 08:21:00,
2013-03-29 04:25:00,56.7,50.6,30.19,North,-999,0.0,0.0,80,0.00,,,-99.99,WeatherLink 5.5,2013-03-29 08:25:00,
2013-03-29 04:30:00,56.9,50.5,30.19,North,0,0.0,3.0,79,0.00,,,-99.99,WeatherLink 5.5,2013-03-29 08:30:00,
2013-03-29 04:31:00,56.7,50.6,30.19,North,-999,0.0,0.0,80,0.00,,,-99.99,WeatherLink 5.5,2013-03-29 08:31:00,
2013-03-29 04:35:00,56.8,50.7,30.19,North,0,0.0,3.0,80,0.00,,,-99.99,WeatherLink 5.5,2013-03-29 08:35:00,
2013-03-29 04:41:00,56.8,50.7,30.19,North,0,0.0,3.0,80,0.00,,,-99.99,WeatherLink 5.5,2013-03-29 08:41:00,
2013-03-29 04:45:00,56.7,50.6,30.18,North,0,0.0,2.0,80,0.00,,,-99.99,WeatherLink 5.5,2013-03-29 08:45:00,
2013-03-29 04:51:00,56.7,50.6,30.18,North,0,0.0,2.0,80,0.00,,,-99.99,WeatherLink 5.5,2013-03-29 08:51:00,
2013-03-29 04:55:00,56.3,50.5,30.18,North,-999,0.0,0.0,81,0.00,,,-99.99,WeatherLink 5.5,2013-03-29 08:55:00,
2013-03-29 05:00:00,56.3,50.5,30.18,North,-999,0.0,0.0,81,0.00,,,-99.99,WeatherLink 5.5,2013-03-29 09:00:00,
2013-03-29 05:05:00,56.3,50.5,30.18,North,0,0.0,3.0,81,0.00,,,-99.99,WeatherLink 5.5,2013-03-29 09:05:00,
2013-03-29 05:10:00,56.3,50.5,30.18,North,0,0.0,3.0,81,0.00,,,-99.99,WeatherLink 5.5,2013-03-29 09:10:00,
2013-03-29 05:16:00,56.1,50.7,30.19,North,0,0.0,1.0,82,0.00,,,-99.99,WeatherLink 5.5,2013-03-29 09:16:00,
2013-03-29 05:20:00,55.7,50.6,30.19,North,0,0.0,2.0,83,0.00,,,-99.99,WeatherLink 5.5,2013-03-29 09:20:00,
2013-03-29 05:26:00,55.7,50.6,30.19,North,0,0.0,2.0,83,0.00,,,-99.99,WeatherLink 5.5,2013-03-29 09:26:00,
2013-03-29 05:30:00,55.6,50.5,30.19,North,0,0.0,2.0,83,0.00,,,-99.99,WeatherLink 5.5,2013-03-29 09:30:00,
2013-03-29 05:35:00,55.6,50.5,30.19,North,0,0.0,2.0,83,0.00,,,-99.99,WeatherLink 5.5,2013-03-29 09:35:00,
2013-03-29 05:40:00,55.8,50.7,30.19,North,0,0.0,3.0,83,0.00,,,-99.99,WeatherLink 5.5,2013-03-29 09:40:00,
2013-03-29 05:46:00,55.8,50.7,30.19,North,0,0.0,3.0,83,0.00,,,-99.99,WeatherLink 5.5,2013-03-29 09:46:00,
2013-03-29 05:50:00,55.7,50.9,30.20,North,-999,0.0,0.0,84,0.00,,,-99.99,WeatherLink 5.5,2013-03-29 09:50:00,
2013-03-29 05:56:00,55.7,50.9,30.20,North,-999,0.0,0.0,84,0.00,,,-99.99,WeatherLink 5.5,2013-03-29 09:56:00,
2013-03-29 06:00:00,55.5,50.7,30.20,North,0,0.0,4.0,84,0.00,,,-99.99,WeatherLink 5.5,2013-03-29 10:00:00,
2013-03-29 06:05:00,55.5,50.7,30.20,North,0,0.0,4.0,84,0.00,,,-99.99,WeatherLink 5.5,2013-03-29 10:05:00,
2013-03-29 06:10:00,55.5,51.1,30.20,North,0,0.0,2.0,85,0.00,,,-99.99,WeatherLink 5.5,2013-03-29 10:10:00,
2013-03-29 06:15:00,55.5,51.1,30.20,North,0,0.0,2.0,85,0.00,,,-99.99,WeatherLink 5.5,2013-03-29 10:15:00,
2013-03-29 06:20:00,55.4,51.3,30.20,North,0,0.0,4.0,86,0.00,,,-99.99,WeatherLink 5.5,2013-03-29 10:20:00,
2013-03-29 06:25:00,55.4,51.3,30.20,North,0,0.0,4.0,86,0.00,,,-99.99,WeatherLink 5.5,2013-03-29 10:25:00,
2013-03-29 06:31:00,55.4,51.3,30.20,North,0,0.0,2.0,86,0.00,,,-99.99,WeatherLink 5.5,2013-03-29 10:31:00,
2013-03-29 06:35:00,55.4,51.6,30.20,North,0,0.0,4.0,87,0.00,,,-99.99,WeatherLink 5.5,2013-03-29 10:35:00,
2013-03-29 06:40:00,55.4,51.6,30.20,North,0,0.0,4.0,87,0.00,,,-99.99,WeatherLink 5.5,2013-03-29 10:40:00,
2013-03-29 06:45:00,55.4,51.6,30.20,North,0,0.0,3.0,87,0.00,,,-99.99,WeatherLink 5.5,2013-03-29 10:45:00,
2013-03-29 06:50:00,55.4,51.6,30.20,North,0,0.0,3.0,87,0.00,,,-99.99,WeatherLink 5.5,2013-03-29 10:50:00,
2013-03-29 06:56:00,55.4,51.6,30.20,North,0,0.0,2.0,87,0.00,,,-99.99,WeatherLink 5.5,2013-03-29 10:56:00,
2013-03-29 07:00:00,55.3,51.8,30.21,North,0,0.0,2.0,88,0.00,,,-99.99,WeatherLink 5.5,2013-03-29 11:00:00,
2013-03-29 07:06:00,55.3,51.8,30.21,North,0,0.0,2.0,88,0.00,,,-99.99,WeatherLink 5.5,2013-03-29 11:06:00,
2013-03-29 07:10:00,55.3,52.1,30.21,North,0,0.0,2.0,89,0.00,,,-99.99,WeatherLink 5.5,2013-03-29 11:10:00,
2013-03-29 07:15:00,55.3,52.1,30.21,North,0,0.0,2.0,89,0.00,,,-99.99,WeatherLink 5.5,2013-03-29 11:15:00,
2013-03-29 07:20:00,55.3,52.4,30.21,North,0,0.0,3.0,90,0.00,,,-99.99,WeatherLink 5.5,2013-03-29 11:20:00,
2013-03-29 07:25:00,55.3,52.4,30.21,North,0,0.0,3.0,90,0.00,,,-99.99,WeatherLink 5.5,2013-03-29 11:25:00,
2013-03-29 07:30:00,55.3,52.4,30.22,North,0,0.0,2.0,90,0.00,,,-99.99,WeatherLink 5.5,2013-03-29 11:30:00,
2013-03-29 07:35:00,55.3,52.4,30.22,North,0,0.0,2.0,90,0.00,,,-99.99,WeatherLink 5.5,2013-03-29 11:35:00,
2013-03-29 07:40:00,55.4,52.5,30.22,North,0,0.0,3.0,90,0.00,,,-99.99,WeatherLink 5.5,2013-03-29 11:40:00,
2013-03-29 07:45:00,55.9,52.7,30.22,North,0,0.0,3.0,89,0.00,,,-99.99,WeatherLink 5.5,2013-03-29 11:45:00,
2013-03-29 07:50:00,55.9,52.7,30.22,North,0,0.0,3.0,89,0.00,,,-99.99,WeatherLink 5.5,2013-03-29 11:50:00,
2013-03-29 07:56:00,56.3,53.1,30.22,North,0,0.0,3.0,89,0.00,,,-99.99,WeatherLink 5.5,2013-03-29 11:56:00,
2013-03-29 08:00:00,57.6,53.4,30.22,North,0,0.0,4.0,86,0.00,,,-99.99,WeatherLink 5.5,2013-03-29 12:00:00,
2013-03-29 08:05:00,57.6,53.4,30.22,North,0,0.0,4.0,86,0.00,,,-99.99,WeatherLink 5.5,2013-03-29 12:05:00,
2013-03-29 08:11:00,58.2,53.4,30.23,North,0,0.0,3.0,84,0.00,,,-99.99,WeatherLink 5.5,2013-03-29 12:11:00,
2013-03-29 08:15:00,59.2,53.0,30.23,North,0,0.0,3.0,80,0.00,,,-99.99,WeatherLink 5.5,2013-03-29 12:15:00,
2013-03-29 08:21:00,59.2,53.0,30.23,North,0,0.0,3.0,80,0.00,,,-99.99,WeatherLink 5.5,2013-03-29 12:21:00,
2013-03-29 08:25:00,60.4,52.8,30.23,North,0,1.0,6.0,76,0.00,,,-99.99,WeatherLink 5.5,2013-03-29 12:25:00,
2013-03-29 08:30:00,60.4,52.8,30.23,North,0,1.0,6.0,76,0.00,,,-99.99,WeatherLink 5.5,2013-03-29 12:30:00,
2013-03-29 08:35:00,61.2,52.1,30.23,North,0,0.0,5.0,72,0.00,,,-99.99,WeatherLink 5.5,2013-03-29 12:35:00,
2013-03-29 08:40:00,61.2,52.1,30.23,North,0,0.0,5.0,72,0.00,,,-99.99,WeatherLink 5.5,2013-03-29 12:40:00,
2013-03-29 08:46:00,61.5,52.0,30.24,North,0,0.0,5.0,71,0.00,,,-99.99,WeatherLink 5.5,2013-03-29 12:46:00,
2013-03-29 08:50:00,61.8,51.5,30.23,NNW,337,1.0,5.0,69,0.00,,,-99.99,WeatherLink 5.5,2013-03-29 12:50:00,
2013-03-29 08:56:00,61.8,51.5,30.23,NNW,337,1.0,5.0,69,0.00,,,-99.99,WeatherLink 5.5,2013-03-29 12:56:00,
2013-03-29 09:00:00,62.3,51.2,30.24,NNW,337,0.0,6.0,67,0.00,,,-99.99,WeatherLink 5.5,2013-03-29 13:00:00,
2013-03-29 09:05:00,62.3,51.2,30.24,NNW,337,0.0,6.0,67,0.00,,,-99.99,WeatherLink 5.5,2013-03-29 13:05:00,
2013-03-29 09:10:00,63.1,51.6,30.24,NNW,337,1.0,6.0,66,0.00,,,-99.99,WeatherLink 5.5,2013-03-29 13:10:00,
2013-03-29 09:15:00,63.1,51.6,30.24,NNW,337,1.0,6.0,66,0.00,,,-99.99,WeatherLink 5.5,2013-03-29 13:15:00,
2013-03-29 09:21:00,63.9,51.5,30.25,NNW,337,2.0,7.0,64,0.00,,,-99.99,WeatherLink 5.5,2013-03-29 13:21:00,
2013-03-29 09:25:00,64.8,51.5,30.24,NNW,337,0.0,5.0,62,0.00,,,-99.99,WeatherLink 5.5,2013-03-29 13:25:00,
2013-03-29 09:31:00,64.8,51.5,30.24,NNW,337,0.0,5.0,62,0.00,,,-99.99,WeatherLink 5.5,2013-03-29 13:31:00,
2013-03-29 09:35:00,65.9,51.2,30.25,NNW,337,1.0,6.0,59,0.00,,,-99.99,WeatherLink 5.5,2013-03-29 13:35:00,
2013-03-29 09:41:00,65.9,51.2,30.25,NNW,337,1.0,6.0,59,0.00,,,-99.99,WeatherLink 5.5,2013-03-29 13:41:00,
2013-03-29 09:45:00,66.9,51.2,30.25,NNW,337,0.0,4.0,57,0.00,,,-99.99,WeatherLink 5.5,2013-03-29 13:45:00,
2013-03-29 09:51:00,66.9,51.2,30.25,NNW,337,0.0,4.0,57,0.00,,,-99.99,WeatherLink 5.5,2013-03-29 13:51:00,
2013-03-29 09:55:00,68.1,50.8,30.25,North,0,1.0,7.0,54,0.00,,,-99.99,WeatherLink 5.5,2013-03-29 13:55:00,
2013-03-29 10:00:00,68.1,50.8,30.25,North,0,1.0,7.0,54,0.00,,,-99.99,WeatherLink 5.5,2013-03-29 14:00:00,
2013-03-29 10:05:00,68.9,51.1,30.25,North,0,1.0,8.0,53,0.00,,,-99.99,WeatherLink 5.5,2013-03-29 14:05:00,
2013-03-29 10:10:00,69.4,50.5,30.25,North,0,4.0,10.0,51,0.00,,,-99.99,WeatherLink 5.5,2013-03-29 14:10:00,
2013-03-29 10:11:00,68.9,51.1,30.25,North,0,1.0,8.0,53,0.00,,,-99.99,WeatherLink 5.5,2013-03-29 14:11:00,
2013-03-29 10:15:00,69.6,50.1,30.25,North,0,2.0,11.0,50,0.00,,,-99.99,WeatherLink 5.5,2013-03-29 14:15:00,
2013-03-29 10:21:00,69.6,50.1,30.25,North,0,2.0,11.0,50,0.00,,,-99.99,WeatherLink 5.5,2013-03-29 14:21:00,
2013-03-29 10:30:00,70.4,50.3,30.26,North,0,2.0,8.0,49,0.00,,,-99.99,WeatherLink 5.5,2013-03-29 14:30:00,
2013-03-29 10:31:00,70.2,50.1,30.26,North,0,2.0,9.0,49,0.00,,,-99.99,WeatherLink 5.5,2013-03-29 14:31:00,
2013-03-29 10:35:00,70.6,50.0,30.26,North,0,2.0,8.0,48,0.00,,,-99.99,WeatherLink 5.5,2013-03-29 14:35:00,
2013-03-29 10:41:00,70.6,50.0,30.26,North,0,2.0,8.0,48,0.00,,,-99.99,WeatherLink 5.5,2013-03-29 14:41:00,
2013-03-29 10:45:00,70.9,50.2,30.26,North,0,2.0,9.0,48,0.00,,,-99.99,WeatherLink 5.5,2013-03-29 14:45:00,
2013-03-29 10:50:00,70.9,50.2,30.26,North,0,2.0,9.0,48,0.00,,,-99.99,WeatherLink 5.5,2013-03-29 14:50:00,
2013-03-29 10:55:00,71.5,50.2,30.26,North,0,2.0,9.0,47,0.00,,,-99.99,WeatherLink 5.5,2013-03-29 14:55:00,
2013-03-29 11:00:00,71.5,50.2,30.26,North,0,2.0,9.0,47,0.00,,,-99.99,WeatherLink 5.5,2013-03-29 15:00:00,
2013-03-29 11:06:00,71.7,49.8,30.26,North,0,5.0,10.0,46,0.00,,,-99.99,WeatherLink 5.5,2013-03-29 15:06:00,
2013-03-29 11:10:00,72.0,50.1,30.26,NNE,22,3.0,12.0,46,0.00,,,-99.99,WeatherLink 5.5,2013-03-29 15:10:00,
2013-03-29 11:16:00,72.0,50.1,30.26,NNE,22,3.0,12.0,46,0.00,,,-99.99,WeatherLink 5.5,2013-03-29 15:16:00,
2013-03-29 11:20:00,72.5,49.3,30.26,NNE,22,3.0,11.0,44,0.00,,,-99.99,WeatherLink 5.5,2013-03-29 15:20:00,
2013-03-29 11:26:00,72.5,49.3,30.26,NNE,22,3.0,11.0,44,0.00,,,-99.99,WeatherLink 5.5,2013-03-29 15:26:00,
2013-03-29 11:30:00,73.0,49.8,30.26,NNE,22,3.0,12.0,44,0.00,,,-99.99,WeatherLink 5.5,2013-03-29 15:30:00,
2013-03-29 11:35:00,73.0,49.8,30.26,NNE,22,3.0,12.0,44,0.00,,,-99.99,WeatherLink 5.5,2013-03-29 15:35:00,
2013-03-29 11:40:00,73.4,49.5,30.26,NE,45,3.0,12.0,43,0.00,,,-99.99,WeatherLink 5.5,2013-03-29 15:40:00,
2013-03-29 11:41:00,73.6,49.7,30.26,North,0,1.0,7.0,43,0.00,,,-99.99,WeatherLink 5.5,2013-03-29 15:41:00,
2013-03-29 11:45:00,73.4,49.5,30.26,ENE,67,4.0,11.0,43,0.00,,,-99.99,WeatherLink 5.5,2013-03-29 15:45:00,
2013-03-29 11:51:00,73.4,49.5,30.26,ENE,67,4.0,11.0,43,0.00,,,-99.99,WeatherLink 5.5,2013-03-29 15:51:00,
2013-03-29 11:55:00,72.7,50.1,30.26,NE,45,2.0,9.0,45,0.00,,,-99.99,WeatherLink 5.5,2013-03-29 15:55:00,
2013-03-29 12:01:00,72.7,50.1,30.26,NE,45,2.0,9.0,45,0.00,,,-99.99,WeatherLink 5.5,2013-03-29 16:01:00,
2013-03-29 12:05:00,73.2,49.4,30.26,NNE,22,2.0,10.0,43,0.00,,,-99.99,WeatherLink 5.5,2013-03-29 16:05:00,
2013-03-29 12:10:00,73.2,49.4,30.26,NNE,22,2.0,10.0,43,0.00,,,-99.99,WeatherLink 5.5,2013-03-29 16:10:00,
2013-03-29 12:15:00,73.0,47.9,30.25,NNE,22,3.0,11.0,41,0.00,,,-99.99,WeatherLink 5.5,2013-03-29 16:15:00,
2013-03-29 12:20:00,73.0,47.9,30.25,NNE,22,3.0,11.0,41,0.00,,,-99.99,WeatherLink 5.5,2013-03-29 16:20:00,
2013-03-29 12:25:00,73.8,49.3,30.25,NE,45,4.0,12.0,42,0.00,,,-99.99,WeatherLink 5.5,2013-03-29 16:25:00,
2013-03-29 12:31:00,73.8,49.3,30.25,NE,45,4.0,12.0,42,0.00,,,-99.99,WeatherLink 5.5,2013-03-29 16:31:00,
2013-03-29 12:35:00,74.1,50.8,30.25,NNE,22,4.0,13.0,44,0.00,,,-99.99,WeatherLink 5.5,2013-03-29 16:35:00,
2013-03-29 12:41:00,74.1,50.8,30.25,NNE,22,4.0,13.0,44,0.00,,,-99.99,WeatherLink 5.5,2013-03-29 16:41:00,
2013-03-29 12:45:00,74.4,51.1,30.25,NE,45,4.0,13.0,44,0.00,,,-99.99,WeatherLink 5.5,2013-03-29 16:45:00,
2013-03-29 12:51:00,74.4,51.1,30.25,NE,45,4.0,13.0,44,0.00,,,-99.99,WeatherLink 5.5,2013-03-29 16:51:00,
2013-03-29 12:55:00,75.2,51.2,30.24,North,0,3.0,12.0,43,0.00,,,-99.99,WeatherLink 5.5,2013-03-29 16:55:00,
2013-03-29 13:00:00,75.2,51.2,30.24,North,0,3.0,12.0,43,0.00,,,-99.99,WeatherLink 5.5,2013-03-29 17:00:00,
2013-03-29 13:05:00,74.7,49.4,30.24,ENE,67,3.0,12.0,41,0.00,,,-99.99,WeatherLink 5.5,2013-03-29 17:05:00,
2013-03-29 13:11:00,74.7,49.4,30.24,ENE,67,3.0,12.0,41,0.00,,,-99.99,WeatherLink 5.5,2013-03-29 17:11:00,
2013-03-29 13:15:00,74.4,50.4,30.24,NE,45,3.0,11.0,43,0.00,,,-99.99,WeatherLink 5.5,2013-03-29 17:15:00,
2013-03-29 13:20:00,74.4,50.4,30.24,NE,45,3.0,11.0,43,0.00,,,-99.99,WeatherLink 5.5,2013-03-29 17:20:00,
2013-03-29 13:25:00,74.4,49.8,30.24,NE,45,2.0,10.0,42,0.00,,,-99.99,WeatherLink 5.5,2013-03-29 17:25:00,
2013-03-29 13:30:00,74.4,49.8,30.24,NE,45,2.0,10.0,42,0.00,,,-99.99,WeatherLink 5.5,2013-03-29 17:30:00,
2013-03-29 13:36:00,75.1,50.4,30.24,NE,45,5.0,14.0,42,0.00,,,-99.99,WeatherLink 5.5,2013-03-29 17:36:00,
2013-03-29 13:40:00,74.5,49.2,30.24,NNE,22,5.0,15.0,41,0.00,,,-99.99,WeatherLink 5.5,2013-03-29 17:40:00,
2013-03-29 13:46:00,74.5,49.2,30.24,NNE,22,5.0,15.0,41,0.00,,,-99.99,WeatherLink 5.5,2013-03-29 17:46:00,
2013-03-29 13:50:00,74.9,49.6,30.23,NE,45,2.0,12.0,41,0.00,,,-99.99,WeatherLink 5.5,2013-03-29 17:50:00,
2013-03-29 13:56:00,74.9,49.6,30.23,NE,45,2.0,12.0,41,0.00,,,-99.99,WeatherLink 5.5,2013-03-29 17:56:00,
2013-03-29 14:00:00,74.2,50.3,30.23,NE,45,3.0,13.0,43,0.00,,,-99.99,WeatherLink 5.5,2013-03-29 18:00:00,
2013-03-29 14:06:00,74.2,50.3,30.23,NE,45,3.0,13.0,43,0.00,,,-99.99,WeatherLink 5.5,2013-03-29 18:06:00,
2013-03-29 14:10:00,73.8,48.6,30.22,NE,45,4.0,15.0,41,0.00,,,-99.99,WeatherLink 5.5,2013-03-29 18:10:00,
2013-03-29 14:16:00,73.8,48.6,30.22,NE,45,4.0,15.0,41,0.00,,,-99.99,WeatherLink 5.5,2013-03-29 18:16:00,
2013-03-29 14:20:00,73.5,49.0,30.22,NE,45,3.0,11.0,42,0.00,,,-99.99,WeatherLink 5.5,2013-03-29 18:20:00,
2013-03-29 14:26:00,73.5,49.0,30.22,NE,45,3.0,11.0,42,0.00,,,-99.99,WeatherLink 5.5,2013-03-29 18:26:00,
2013-03-29 14:30:00,74.5,47.9,30.22,ENE,67,2.0,7.0,39,0.00,,,-99.99,WeatherLink 5.5,2013-03-29 18:30:00,
2013-03-29 14:35:00,74.5,47.9,30.22,ENE,67,2.0,7.0,39,0.00,,,-99.99,WeatherLink 5.5,2013-03-29 18:35:00,
2013-03-29 14:40:00,75.1,49.1,30.21,NE,45,4.0,13.0,40,0.00,,,-99.99,WeatherLink 5.5,2013-03-29 18:40:00,
2013-03-29 14:46:00,75.1,49.1,30.21,NE,45,4.0,13.0,40,0.00,,,-99.99,WeatherLink 5.5,2013-03-29 18:46:00,
2013-03-29 14:50:00,75.8,49.1,30.21,ENE,67,2.0,13.0,39,0.00,,,-99.99,WeatherLink 5.5,2013-03-29 18:50:00,
2013-03-29 14:56:00,75.8,49.1,30.21,ENE,67,2.0,13.0,39,0.00,,,-99.99,WeatherLink 5.5,2013-03-29 18:56:00,
2013-03-29 15:00:00,74.1,48.9,30.21,ENE,67,3.0,8.0,41,0.00,,,-99.99,WeatherLink 5.5,2013-03-29 19:00:00,
2013-03-29 15:05:00,74.1,48.9,30.21,ENE,67,3.0,8.0,41,0.00,,,-99.99,WeatherLink 5.5,2013-03-29 19:05:00,
2013-03-29 15:10:00,74.3,48.4,30.20,NE,45,4.0,13.0,40,0.00,,,-99.99,WeatherLink 5.5,2013-03-29 19:10:00,
2013-03-29 15:16:00,74.3,48.4,30.20,NE,45,4.0,13.0,40,0.00,,,-99.99,WeatherLink 5.5,2013-03-29 19:16:00,
2013-03-29 15:20:00,74.0,48.8,30.20,NE,45,3.0,10.0,41,0.00,,,-99.99,WeatherLink 5.5,2013-03-29 19:20:00,
2013-03-29 15:25:00,74.0,48.8,30.20,NE,45,3.0,10.0,41,0.00,,,-99.99,WeatherLink 5.5,2013-03-29 19:25:00,
2013-03-29 15:30:00,74.5,48.6,30.20,NE,45,3.0,10.0,40,0.00,,,-99.99,WeatherLink 5.5,2013-03-29 19:30:00,
2013-03-29 15:35:00,74.5,48.6,30.20,NE,45,3.0,10.0,40,0.00,,,-99.99,WeatherLink 5.5,2013-03-29 19:35:00,
2013-03-29 15:40:00,74.0,48.1,30.20,NNE,22,4.0,11.0,40,0.00,,,-99.99,WeatherLink 5.5,2013-03-29 19:40:00,
2013-03-29 15:46:00,74.0,48.1,30.20,NNE,22,4.0,11.0,40,0.00,,,-99.99,WeatherLink 5.5,2013-03-29 19:46:00,
2013-03-29 15:50:00,74.4,47.8,30.19,NNE,22,2.0,10.0,39,0.00,,,-99.99,WeatherLink 5.5,2013-03-29 19:50:00,
2013-03-29 15:56:00,74.4,47.8,30.19,NNE,22,2.0,10.0,39,0.00,,,-99.99,WeatherLink 5.5,2013-03-29 19:56:00,
2013-03-29 16:00:00,75.1,49.1,30.19,NNE,22,2.0,11.0,40,0.00,,,-99.99,WeatherLink 5.5,2013-03-29 20:00:00,
2013-03-29 16:06:00,75.1,49.1,30.19,NNE,22,2.0,11.0,40,0.00,,,-99.99,WeatherLink 5.5,2013-03-29 20:06:00,
2013-03-29 16:10:00,75.3,50.0,30.19,North,0,3.0,11.0,41,0.00,,,-99.99,WeatherLink 5.5,2013-03-29 20:10:00,
2013-03-29 16:15:00,75.3,50.0,30.19,North,0,3.0,11.0,41,0.00,,,-99.99,WeatherLink 5.5,2013-03-29 20:15:00,
2013-03-29 16:20:00,74.8,48.9,30.19,ENE,67,3.0,9.0,40,0.00,,,-99.99,WeatherLink 5.5,2013-03-29 20:20:00,
2013-03-29 16:25:00,74.8,48.9,30.19,ENE,67,3.0,9.0,40,0.00,,,-99.99,WeatherLink 5.5,2013-03-29 20:25:00,
2013-03-29 16:30:00,73.2,48.7,30.19,ENE,67,4.0,11.0,42,0.00,,,-99.99,WeatherLink 5.5,2013-03-29 20:30:00,
2013-03-29 16:36:00,73.2,48.7,30.19,ENE,67,4.0,11.0,42,0.00,,,-99.99,WeatherLink 5.5,2013-03-29 20:36:00,
2013-03-29 16:40:00,73.3,47.5,30.19,East,90,4.0,13.0,40,0.00,,,-99.99,WeatherLink 5.5,2013-03-29 20:40:00,
2013-03-29 16:45:00,73.3,47.5,30.19,East,90,4.0,13.0,40,0.00,,,-99.99,WeatherLink 5.5,2013-03-29 20:45:00,
2013-03-29 16:50:00,73.1,47.3,30.19,ENE,67,1.0,6.0,40,0.00,,,-99.99,WeatherLink 5.5,2013-03-29 20:50:00,
2013-03-29 16:55:00,73.1,47.3,30.19,ENE,67,1.0,6.0,40,0.00,,,-99.99,WeatherLink 5.5,2013-03-29 20:55:00,
2013-03-29 17:01:00,72.6,48.2,30.20,NNE,22,3.0,9.0,42,0.00,,,-99.99,WeatherLink 5.5,2013-03-29 21:01:00,
2013-03-29 17:05:00,72.7,49.5,30.19,NNE,22,1.0,7.0,44,0.00,,,-99.99,WeatherLink 5.5,2013-03-29 21:05:00,
2013-03-29 17:11:00,72.7,49.5,30.19,NNE,22,1.0,7.0,44,0.00,,,-99.99,WeatherLink 5.5,2013-03-29 21:11:00,
2013-03-29 17:15:00,73.2,51.8,30.20,NNE,22,2.0,10.0,47,0.00,,,-99.99,WeatherLink 5.5,2013-03-29 21:15:00,
2013-03-29 17:20:00,73.2,51.8,30.20,NNE,22,2.0,10.0,47,0.00,,,-99.99,WeatherLink 5.5,2013-03-29 21:20:00,
2013-03-29 17:25:00,72.7,52.4,30.20,ENE,67,3.0,10.0,49,0.00,,,-99.99,WeatherLink 5.5,2013-03-29 21:25:00,
2013-03-29 17:31:00,72.7,52.4,30.20,ENE,67,3.0,10.0,49,0.00,,,-99.99,WeatherLink 5.5,2013-03-29 21:31:00,
2013-03-29 17:35:00,71.6,53.0,30.19,ENE,67,4.0,11.0,52,0.00,,,-99.99,WeatherLink 5.5,2013-03-29 21:35:00,
2013-03-29 17:40:00,71.6,53.0,30.19,ENE,67,4.0,11.0,52,0.00,,,-99.99,WeatherLink 5.5,2013-03-29 21:40:00,
2013-03-29 17:45:00,71.4,52.9,30.19,NE,45,2.0,8.0,52,0.00,,,-99.99,WeatherLink 5.5,2013-03-29 21:45:00,
2013-03-29 17:50:00,71.6,52.5,30.19,ENE,67,2.0,7.0,51,0.00,,,-99.99,WeatherLink 5.5,2013-03-29 21:50:00,
2013-03-29 17:55:00,71.6,53.0,30.20,East,90,3.0,10.0,52,0.00,,,-99.99,WeatherLink 5.5,2013-03-29 21:55:00,
2013-03-29 17:56:00,71.6,52.5,30.19,ENE,67,2.0,7.0,51,0.00,,,-99.99,WeatherLink 5.5,2013-03-29 21:56:00,
2013-03-29 18:00:00,71.2,52.7,30.20,ENE,67,5.0,10.0,52,0.00,,,-99.99,WeatherLink 5.5,2013-03-29 22:00:00,
2013-03-29 18:06:00,71.2,52.7,30.20,ENE,67,5.0,10.0,52,0.00,,,-99.99,WeatherLink 5.5,2013-03-29 22:06:00,
2013-03-29 18:10:00,70.5,52.5,30.20,NE,45,1.0,10.0,53,0.00,,,-99.99,WeatherLink 5.5,2013-03-29 22:10:00,
2013-03-29 18:16:00,70.5,52.5,30.20,NE,45,1.0,10.0,53,0.00,,,-99.99,WeatherLink 5.5,2013-03-29 22:16:00,
2013-03-29 18:20:00,70.2,51.7,30.20,East,90,2.0,8.0,52,0.00,,,-99.99,WeatherLink 5.5,2013-03-29 22:20:00,
2013-03-29 18:25:00,70.2,51.7,30.20,East,90,2.0,8.0,52,0.00,,,-99.99,WeatherLink 5.5,2013-03-29 22:25:00,
2013-03-29 18:30:00,70.2,52.8,30.20,NE,45,2.0,9.0,54,0.00,,,-99.99,WeatherLink 5.5,2013-03-29 22:30:00,
2013-03-29 18:36:00,70.2,52.8,30.20,NE,45,2.0,9.0,54,0.00,,,-99.99,WeatherLink 5.5,2013-03-29 22:36:00,
2013-03-29 18:40:00,70.0,52.6,30.19,NE,45,2.0,8.0,54,0.00,,,-99.99,WeatherLink 5.5,2013-03-29 22:40:00,
2013-03-29 18:45:00,70.0,52.6,30.19,NE,45,2.0,8.0,54,0.00,,,-99.99,WeatherLink 5.5,2013-03-29 22:45:00,
2013-03-29 18:50:00,69.6,51.2,30.19,NE,45,1.0,7.0,52,0.00,,,-99.99,WeatherLink 5.5,2013-03-29 22:50:00,
2013-03-29 18:55:00,69.4,51.0,30.19,NE,45,0.0,7.0,52,0.00,,,-99.99,WeatherLink 5.5,2013-03-29 22:55:00,
2013-03-29 18:56:00,69.6,51.2,30.19,NE,45,1.0,7.0,52,0.00,,,-99.99,WeatherLink 5.5,2013-03-29 22:56:00,
2013-03-29 19:05:00,69.2,51.8,30.19,ENE,67,1.0,8.0,54,0.00,,,-99.99,WeatherLink 5.5,2013-03-29 23:05:00,
2013-03-29 19:10:00,69.2,51.8,30.19,ENE,67,1.0,8.0,54,0.00,,,-99.99,WeatherLink 5.5,2013-03-29 23:10:00,
2013-03-29 19:16:00,69.0,52.2,30.19,ENE,67,2.0,8.0,55,0.00,,,-99.99,WeatherLink 5.5,2013-03-29 23:16:00,
2013-03-29 19:20:00,68.6,51.8,30.19,ENE,67,2.0,10.0,55,0.00,,,-99.99,WeatherLink 5.5,2013-03-29 23:20:00,
2013-03-29 19:26:00,68.6,51.8,30.19,ENE,67,2.0,10.0,55,0.00,,,-99.99,WeatherLink 5.5,2013-03-29 23:26:00,
2013-03-29 19:30:00,68.3,52.0,30.19,ENE,67,1.0,5.0,56,0.00,,,-99.99,WeatherLink 5.5,2013-03-29 23:30:00,
2013-03-29 19:35:00,68.3,52.0,30.19,ENE,67,1.0,5.0,56,0.00,,,-99.99,WeatherLink 5.5,2013-03-29 23:35:00,
2013-03-29 19:40:00,68.0,52.7,30.20,ENE,67,0.0,4.0,58,0.00,,,-99.99,WeatherLink 5.5,2013-03-29 23:40:00,
2013-03-29 19:45:00,68.0,52.7,30.20,ENE,67,0.0,4.0,58,0.00,,,-99.99,WeatherLink 5.5,2013-03-29 23:45:00,
2013-03-29 19:50:00,67.5,52.7,30.20,ENE,67,1.0,7.0,59,0.00,,,-99.99,WeatherLink 5.5,2013-03-29 23:50:00,
2013-03-29 19:51:00,67.7,52.4,30.19,ENE,67,0.0,5.0,58,0.00,,,-99.99,WeatherLink 5.5,2013-03-29 23:51:00,
2013-03-29 19:55:00,67.4,52.1,30.20,ENE,67,0.0,5.0,58,0.00,,,-99.99,WeatherLink 5.5,2013-03-29 23:55:00,
2013-03-29 20:01:00,67.4,52.1,30.20,ENE,67,0.0,5.0,58,0.00,,,-99.99,WeatherLink 5.5,2013-03-30 00:01:00,
2013-03-29 20:05:00,67.1,52.3,30.20,ENE,67,0.0,4.0,59,0.00,,,-99.99,WeatherLink 5.5,2013-03-30 00:05:00,
2013-03-29 20:10:00,67.1,52.3,30.20,ENE,67,0.0,4.0,59,0.00,,,-99.99,WeatherLink 5.5,2013-03-30 00:10:00,
2013-03-29 20:15:00,66.8,52.5,30.20,ENE,67,0.0,2.0,60,0.00,,,-99.99,WeatherLink 5.5,2013-03-30 00:15:00,
2013-03-29 20:21:00,66.8,52.5,30.20,ENE,67,0.0,2.0,60,0.00,,,-99.99,WeatherLink 5.5,2013-03-30 00:21:00,
2013-03-29 20:25:00,66.4,52.1,30.20,ENE,67,0.0,1.0,60,0.00,,,-99.99,WeatherLink 5.5,2013-03-30 00:25:00,
2013-03-29 20:31:00,66.4,52.1,30.20,ENE,67,0.0,1.0,60,0.00,,,-99.99,WeatherLink 5.5,2013-03-30 00:31:00,
2013-03-29 20:35:00,66.2,52.3,30.21,ENE,67,0.0,4.0,61,0.00,,,-99.99,WeatherLink 5.5,2013-03-30 00:35:00,
2013-03-29 20:41:00,66.2,52.3,30.21,ENE,67,0.0,4.0,61,0.00,,,-99.99,WeatherLink 5.5,2013-03-30 00:41:00,
2013-03-29 20:45:00,66.1,52.3,30.21,ENE,67,0.0,3.0,61,0.00,,,-99.99,WeatherLink 5.5,2013-03-30 00:45:00,
2013-03-29 20:51:00,66.1,52.3,30.21,ENE,67,0.0,3.0,61,0.00,,,-99.99,WeatherLink 5.5,2013-03-30 00:51:00,
2013-03-29 20:55:00,65.8,52.9,30.21,North,-999,0.0,0.0,63,0.00,,,-99.99,WeatherLink 5.5,2013-03-30 00:55:00,
2013-03-29 21:01:00,65.8,52.9,30.21,North,-999,0.0,0.0,63,0.00,,,-99.99,WeatherLink 5.5,2013-03-30 01:01:00,
2013-03-29 21:05:00,65.4,52.9,30.22,ENE,67,0.0,4.0,64,0.00,,,-99.99,WeatherLink 5.5,2013-03-30 01:05:00,
2013-03-29 21:11:00,65.4,52.9,30.22,ENE,67,0.0,4.0,64,0.00,,,-99.99,WeatherLink 5.5,2013-03-30 01:11:00,
2013-03-29 21:15:00,65.3,53.2,30.21,North,-999,0.0,0.0,65,0.00,,,-99.99,WeatherLink 5.5,2013-03-30 01:15:00,
2013-03-29 21:21:00,65.3,53.2,30.21,North,-999,0.0,0.0,65,0.00,,,-99.99,WeatherLink 5.5,2013-03-30 01:21:00,
2013-03-29 21:25:00,65.1,53.0,30.22,ENE,67,0.0,3.0,65,0.00,,,-99.99,WeatherLink 5.5,2013-03-30 01:25:00,
2013-03-29 21:31:00,65.1,53.0,30.22,ENE,67,0.0,3.0,65,0.00,,,-99.99,WeatherLink 5.5,2013-03-30 01:31:00,
2013-03-29 21:35:00,65.0,53.4,30.22,North,-999,0.0,0.0,66,0.00,,,-99.99,WeatherLink 5.5,2013-03-30 01:35:00,
2013-03-29 21:41:00,65.0,53.4,30.22,North,-999,0.0,0.0,66,0.00,,,-99.99,WeatherLink 5.5,2013-03-30 01:41:00,
2013-03-29 21:45:00,64.2,53.0,30.22,North,-999,0.0,0.0,67,0.00,,,-99.99,WeatherLink 5.5,2013-03-30 01:45:00,
2013-03-29 21:51:00,64.2,53.0,30.22,North,-999,0.0,0.0,67,0.00,,,-99.99,WeatherLink 5.5,2013-03-30 01:51:00,
2013-03-29 21:55:00,63.6,53.2,30.22,North,-999,0.0,1.0,69,0.00,,,-99.99,WeatherLink 5.5,2013-03-30 01:55:00,
2013-03-29 22:01:00,63.6,53.2,30.22,North,-999,0.0,1.0,69,0.00,,,-99.99,WeatherLink 5.5,2013-03-30 02:01:00,
2013-03-29 22:05:00,63.5,53.9,30.22,ENE,67,0.0,2.0,71,0.00,,,-99.99,WeatherLink 5.5,2013-03-30 02:05:00,
2013-03-29 22:10:00,63.5,53.9,30.22,ENE,67,0.0,2.0,71,0.00,,,-99.99,WeatherLink 5.5,2013-03-30 02:10:00,
2013-03-29 22:15:00,63.6,54.0,30.23,ENE,67,0.0,2.0,71,0.00,,,-99.99,WeatherLink 5.5,2013-03-30 02:15:00,
2013-03-29 22:21:00,63.6,54.0,30.23,ENE,67,0.0,2.0,71,0.00,,,-99.99,WeatherLink 5.5,2013-03-30 02:21:00,
2013-03-29 22:25:00,64.0,54.0,30.23,ENE,67,0.0,3.0,70,0.00,,,-99.99,WeatherLink 5.5,2013-03-30 02:25:00,
2013-03-29 22:31:00,64.0,54.0,30.23,ENE,67,0.0,3.0,70,0.00,,,-99.99,WeatherLink 5.5,2013-03-30 02:31:00,
2013-03-29 22:35:00,63.3,54.1,30.23,ENE,67,0.0,1.0,72,0.00,,,-99.99,WeatherLink 5.5,2013-03-30 02:35:00,
2013-03-29 22:40:00,63.3,54.1,30.23,ENE,67,0.0,1.0,72,0.00,,,-99.99,WeatherLink 5.5,2013-03-30 02:40:00,
2013-03-29 22:46:00,63.0,54.2,30.23,North,-999,0.0,0.0,73,0.00,,,-99.99,WeatherLink 5.5,2013-03-30 02:46:00,
2013-03-29 22:50:00,62.8,54.4,30.23,ENE,67,0.0,3.0,74,0.00,,,-99.99,WeatherLink 5.5,2013-03-30 02:50:00,
2013-03-29 22:56:00,62.8,54.4,30.23,ENE,67,0.0,3.0,74,0.00,,,-99.99,WeatherLink 5.5,2013-03-30 02:56:00,
2013-03-29 23:00:00,62.5,54.8,30.23,ENE,67,0.0,1.0,76,0.00,,,-99.99,WeatherLink 5.5,2013-03-30 03:00:00,
2013-03-29 23:06:00,62.5,54.8,30.23,ENE,67,0.0,1.0,76,0.00,,,-99.99,WeatherLink 5.5,2013-03-30 03:06:00,
2013-03-29 23:10:00,62.2,54.9,30.23,North,-999,0.0,0.0,77,0.00,,,-99.99,WeatherLink 5.5,2013-03-30 03:10:00,
2013-03-29 23:15:00,62.2,54.9,30.23,North,-999,0.0,0.0,77,0.00,,,-99.99,WeatherLink 5.5,2013-03-30 03:15:00,
2013-03-29 23:25:00,62.0,55.4,30.23,North,-999,0.0,0.0,79,0.00,,,-99.99,WeatherLink 5.5,2013-03-30 03:25:00,
2013-03-29 23:31:00,62.0,55.4,30.23,North,-999,0.0,0.0,79,0.00,,,-99.99,WeatherLink 5.5,2013-03-30 03:31:00,
2013-03-29 23:35:00,61.7,55.8,30.23,North,-999,0.0,0.0,81,0.00,,,-99.99,WeatherLink 5.5,2013-03-30 03:35:00,
2013-03-29 23:41:00,61.7,55.8,30.23,North,-999,0.0,0.0,81,0.00,,,-99.99,WeatherLink 5.5,2013-03-30 03:41:00,
2013-03-29 23:45:00,61.6,55.7,30.23,ENE,67,0.0,2.0,81,0.00,,,-99.99,WeatherLink 5.5,2013-03-30 03:45:00,
2013-03-29 23:50:00,61.6,55.7,30.23,ENE,67,0.0,2.0,81,0.00,,,-99.99,WeatherLink 5.5,2013-03-30 03:50:00,
2013-03-29 23:55:00,61.6,56.0,30.23,North,-999,0.0,0.0,82,0.00,,,-99.99,WeatherLink 5.5,2013-03-30 03:55:00,